STARLINK-1226, 45229

Orbit data source: Space-Track

STARLINK-1226, 45229 is a payload satellite owned by SpaceX/Seattle (US) in LEO that was launched on Mon, 17 Feb 2020 UTC via an FALCON 9 launch vehicle from the Air Force Eastern Test Range (AFETR). Payload-class satellites include a variety of spacecraft equipped with specific instruments for various scientific and technological missions. These include communications satellites like Starlink; space stations such as the ISS; scientific satellites like the Hubble; Earth observation satellites from companies like Planet Labs, Umbra, and HawkEye 360; GPS; miniature CubeSats for education and research; and military/defense satellites.

Loading next visibility...
Identifier
45229, 2020-012BD
Orbit
LEO
Country
Flag of USUS
Related business
Manufacturer
SpaceX/Seattle
Mission
Operational Commercial Communications
Bus & Motor
STARLINK, Unknown motor
Mass
260 kg wet, ~248 kg dry
Launch date (UTC)
2020-02-17 (6 years ago)
Launch vehicle
FALCON 9
Launch site
Air Force Eastern Test Range (AFETR)
Object type
Payload
Rocket body
Debris
Shape & HBR
Box + 1 Pan, 10.1 m
Radar Cross Section
13.562 m², Large (>1 m²)

Expand to show TLE details & history
Last TLE update: 8 hours ago

TLE from 8 hours ago
0 STARLINK-1226
1 45229U 20012BD  26073.90997670  .00053529  00000-0  17861-2 0  9991
2 45229  53.1613 334.3654 0001522  90.1311 269.9865 15.30566884336212
Epoch: 2026-03-14T21:50Z
TLE epoch observation values (Epoch: 2026-03-14T21:50:21.986Z)
Latitude
0.00001°
Longitude
-165.75059°
Altitude
475.02 km
Speed
7.63 km/s
True Right ascension
22h 17m 27s
True Declination
0° 00' 00"
Sunlit
Object was in daylight at epoch
Visualization orbit readout
Latitude
Unknown
Longitude
Unknown
Altitude
Unknown
Speed
Unknown
Apparent Right ascension
Unknown
Apparent Declination
Unknown
Sunlit
N/A
Visualization observer readout
Local Sidereal Time
10:35:01
Azimuth
Unknown
Elevation
Unknown
Doppler factor
Unknown
Orbital elements
Apogee altitude
475.419 km
Perigee altitude
473.333 km
Semi-major axis
6,852.513 km
Eccentricity
0.00015
Inclination
53.1613°
RAAN
334.3654°
Arg. of periapsis
90.1311°
True anomaly
269.96906°
Mean anomaly
269.9865°
Eccentric anomaly
269.97778°
Mean motion
3.82621 °/min
Orbital period
94.09 mins
BSTAR
0.0017861
Loading maneuver chart data...
Computing Atmospheric mass density...
Loading historical data...
Loading historical data...
Loading historical data...
Loading historical data...
Loading historical data...
Loading historical data...
Loading historical data...

Documentation

Showing up to 5 results
|